Guest (not logged in) | Log in

Project information

Duration: 2018-12-20 00:00 onwards
Historical data from: 1995-01-01
Position: 0° 0' 0.00" N
0° 0' 0.00" E
0 m A.S.L
Contact: Carsten Weber Kock
Description: Zephir 317 måler vind i Roskilde

Measurements

NameHeight [m]DurationLatest (2019-03-22 23:50)
Dir_100m 0.00 2018-12-20 14:20 onwards 188.49 Deg
Dir_10m 0.00 2018-12-20 14:20 onwards 184.48 Deg
Dir_125m 0.00 2018-12-20 14:20 onwards 191.24 Deg
Dir_150m 0.00 2018-12-20 14:20 onwards 195.40 Deg
Dir_200m 0.00 2018-12-20 14:20 onwards 195.01 Deg
Dir_20m 0.00 2018-12-20 14:20 onwards 175.29 Deg
Dir_30m 0.00 2018-12-20 14:20 onwards 179.80 Deg
Dir_38m 0.00 2018-12-20 14:20 onwards 179.88 Deg
Dir_50m 0.00 2018-12-20 14:20 onwards 182.04 Deg
Dir_60m 0.00 2018-12-20 14:20 onwards 182.89 Deg
Dir_800m 0.00 2018-12-20 14:20 onwards 194.93 Deg
Dir_80m 0.00 2018-12-20 14:20 onwards 184.48 Deg
Humidity 0.00 2018-12-20 14:20 onwards -
MetDir 0.00 2018-12-20 14:20 onwards 153.78 Deg
Metwsp 0.00 2018-12-20 14:20 onwards 5.07 m/s
Pressure 0.00 2018-12-20 14:20 onwards 1017.60 mbar
Temp 0.00 2018-12-20 14:20 onwards 5.90 DegC
TI_100m 0.00 2018-12-20 14:20 onwards 0.10 -
TI_10m 0.00 2018-12-20 14:20 onwards 0.15 -
TI_125m 0.00 2018-12-20 14:20 onwards 0.10 -
TI_150m 0.00 2018-12-20 14:20 onwards 0.08 -
TI_200m 0.00 2018-12-20 14:20 onwards 0.07 -
TI_20m 0.00 2018-12-20 14:20 onwards 0.14 -
TI_30m 0.00 2018-12-20 14:20 onwards 0.07 -
TI_38m 0.00 2018-12-20 14:20 onwards 0.10 -
TI_50m 0.00 2018-12-20 14:20 onwards 0.10 -
TI_60m 0.00 2018-12-20 14:20 onwards 0.09 -
TI_800m 0.00 2018-12-20 14:20 onwards 0.07 -
TI_80m 0.00 2018-12-20 14:20 onwards 0.09 -
Vert_100m 0.00 2018-12-20 14:20 onwards 0.09 m/s
Vert_10m 0.00 2018-12-20 14:20 onwards 0.33 m/s
Vert_125m 0.00 2018-12-20 14:20 onwards 0.06 m/s
Vert_150m 0.00 2018-12-20 14:20 onwards 0.13 m/s
Vert_200m 0.00 2018-12-20 14:20 onwards 0.00 m/s
Vert_20m 0.00 2018-12-20 14:20 onwards 0.17 m/s
Vert_30m 0.00 2018-12-20 14:20 onwards 0.13 m/s
Vert_38m 0.00 2018-12-20 14:20 onwards 0.08 m/s
Vert_50m 0.00 2018-12-20 14:20 onwards 0.06 m/s
Vert_60m 0.00 2018-12-20 14:20 onwards 0.03 m/s
Vert_800m 0.00 2018-12-20 14:20 onwards -0.04 m/s
Vert_80m 0.00 2018-12-20 14:20 onwards 0.02 m/s
Wsp_100m 0.00 2018-12-20 14:20 onwards 8.28 m/s
Wsp_10m 0.00 2018-12-20 14:20 onwards 4.59 m/s
Wsp_125m 0.00 2018-12-20 14:20 onwards 9.34 m/s
Wsp_150m 0.00 2018-12-20 14:20 onwards 10.52 m/s
Wsp_200m 0.00 2018-12-20 14:20 onwards 11.84 m/s
Wsp_20m 0.00 2018-12-20 14:20 onwards 5.29 m/s
Wsp_30m 0.00 2018-12-20 14:20 onwards 5.84 m/s
Wsp_38m 0.00 2018-12-20 14:20 onwards 6.13 m/s
Wsp_50m 0.00 2018-12-20 14:20 onwards 6.66 m/s
Wsp_60m 0.00 2018-12-20 14:20 onwards 6.94 m/s
Wsp_800m 0.00 2018-12-20 14:20 onwards 10.48 m/s
Wsp_80m 0.00 2018-12-20 14:20 onwards 7.59 m/s
Comments and help requests to webmaster
© 2019